Flag for Germany Weather past 2 weeks in Offenburg, Baden-Württemberg, Germany

Now
61 °F

Clear.


Feels Like: 61 °F
Forecast: 49 / 68 °F
Wind: 2 mph from Southeast

Location: Lahr - CAN-AFB

Current Time: Sep 2, 2014 at 12:30:31 AM

Latest Report: Sep 1, 2014 at 9:50 PM


Visibility: 10 mi

Pressure: 30.15 "Hg

Humidity: 72%

Dew point: 52 °F

Location of OffenburgLocation

Historic Weather in Offenburg — Graph

°F

Offenburg temperature yesterday

Maximum temperature yesterday: 64 °F (at 3:50 PM)
Minimum temperature yesterday: 55 °F (at 7:50 AM)
Average temperature yesterday: 61 °F

Past Weeks' High & Low Weather Summary

 TemperatureHumidityPressure
High77 °F (Aug 28, 4:50 PM)100% (Aug 26, 6:20 PM)30.18 "Hg (Aug 26, 6:20 PM)
Low50 °F (Aug 21, 7:20 AM)40% (Aug 19, 5:20 PM)29.71 "Hg (Aug 26, 3:20 PM)
Average64 °F70%30.00 "Hg
* Reported Aug 18 7:50 AM — Sep 1 9:50 PM, Offenburg, Weather by CustomWeather, © 2014

Note: Actual official high and low records may vary slightly from our data, if they occured in-between our weather recording intervals... More about our weather records

Advertising

Offenburg weather history for previous 24 hours

 ConditionsComfort  
Time TempWeatherWind HumidityBarometerVisibility
9:50 PM
Sep 1
61 °FClear.2 mph72%30.15 "Hg10 mi
7:50 PM63 °FSunny.3 mph68%30.15 "Hg10 mi
7:20 PM63 °FSunny.3 mph68%30.15 "Hg10 mi
6:50 PM63 °FSunny.5 mph68%30.15 "Hg10 mi
6:20 PM63 °FPartly sunny.5 mph68%30.15 "HgN/A
5:50 PM63 °FPartly sunny.7 mph64%30.15 "HgN/A
5:20 PM64 °FPartly sunny.3 mph60%30.15 "HgN/A
4:50 PM64 °FPartly sunny.5 mph64%30.15 "HgN/A
4:20 PM64 °FPartly sunny.3 mph60%30.15 "HgN/A
3:50 PM64 °FPassing clouds.5 mph64%30.15 "HgN/A
3:20 PM63 °FPassing clouds.7 mph68%30.15 "HgN/A
2:50 PM63 °FPartly sunny.6 mph68%30.15 "HgN/A
2:20 PM63 °FPartly sunny.8 mph64%30.15 "HgN/A
1:50 PM63 °FPartly sunny.7 mph64%30.15 "HgN/A
1:20 PM63 °FPartly sunny.6 mph68%30.15 "HgN/A
12:50 PM61 °FBroken clouds.6 mph72%30.15 "HgN/A
12:20 PM61 °FBroken clouds.6 mph72%30.15 "HgN/A
11:50 AM61 °FBroken clouds.6 mph72%30.15 "HgN/A
11:20 AM61 °FScattered clouds.6 mph72%30.15 "HgN/A
10:50 AM61 °FScattered clouds.5 mph72%30.15 "HgN/A
9:50 AM57 °FPartly sunny.5 mph88%30.15 "HgN/A
9:20 AM57 °FPartly sunny.3 mph88%30.15 "Hg3 mi
8:50 AM55 °FFog.7 mph94%30.15 "Hg2 mi
8:20 AM55 °FFog.7 mph94%30.15 "Hg2 mi
7:50 AM55 °FFog.6 mph88%30.12 "Hg2 mi
Weather by CustomWeather, © 2014

See weather overviewHow to use our weather pages